www.pogodaiklimat.ru

Погода и климат >> Архив погоды >> Нигер >> Тиллабери


ПОГОДА в Тиллабери

  • Прогноз погоды в Тиллабери
  • Монитор погоды в Тиллабери

АРХИВ ПОГОДЫ в Тиллабери

Время (UTC), дата Ветер
(напр.,м/с)
 
Видим.   Явления Облачность Т
(С)
Тd
(С)
f
(%)
Тe
(С)
Тes
(С)
Комфортность P
(гПа)
Po
(гПа)
Тmin
(С)
Tmax
(С)
R
(мм)
R24
(мм)
S
(см)
18 18.08 СЗ 2 10 км 9/4 1200 м
[Cu med, cong Ci sp]
+34.0 +34.0 100 +79 +79 опасность
перегрева
1007.3 984.0 +36.2
21 18.08 штиль 0 10 км 9/4 1500 м
[Cb cap Ac As Ci sp]
+30.2 +24.3 71 +42 +42 опасность
перегрева
1009.3 986.0
00 19.08 штиль 0 10 км 10/1 1500 м
[Cb cap Ac As]
+26.5 +24.1 87 +37 +37 очень
душно
1010.0 986.7 5
03 19.08 штиль 0 10 км 10/0
[Ac As]
+26.6 +25.0 91 +38 +38 очень
душно
1008.5 985.3
06 19.08 штиль 0 10 км 10/0
[Ac As]
+26.8 +24.3 86 +37 +37 очень
душно
1009.6 986.3 +26.2 5
09 19.08 СЗ 6 10 км 9/0
[Ac As Ci sp]
+28.0 +24.5 81 +39 +41 очень
душно
1009.5 986.1
12 19.08 З 4 10 км 10/1 1200 м
[Cu hum Ac As]
+31.8 +25.2 68 +46 +50 опасность
перегрева
1009.9 986.5
15 19.08 В 14 10 км гроза, ливневой дождь 10/3 1500 м
[Cb cap Ac As]
+22.2 +21.2 94 +29 +29 очень
душно
1010.7 986.9
18 19.08 штиль 0 10 км {гроза, дождь} 9/1 1200 м
[Cu med, cong Ac As Ci sp]
+24.0 +23.3 96 +32 +32 очень
душно
1008.8 985.1 +32.0 19
21 19.08 штиль 0 10 км 9/0
[Cs]
+24.3 +23.2 94 +33 +33 очень
душно
1009.4 985.8
00 20.08 З 4 10 км 10/0
[Ac As]
+24.5 +23.1 92 +33 +33 очень
душно
1008.6 985.1
03 20.08 штиль 0 10 км 10/0
[Ac As]
+24.4 +23.1 92 +32 +32 очень
душно
1006.5 982.7
06 20.08 штиль 0 10 км 10/5 1200 м
[Cu med, cong Ac As]
+24.0 +23.3 96 +32 +32 очень
душно
1010.4 986.6 +24.0 19
09 20.08 Ю 4 10 км 9/0
[Ac As Ci sp]
+6.8 +22.8 100 +3 +7 1011.0 987.3
12 20.08 ЮЗ 4 10 км 9/0
[Ac lent Ci sp]
+30.4 +22.7 63 +40 +49 очень
душно
1010.3 986.8
15 20.08 З 4 10 км 9/3 1200 м
[Cu med, cong Ac As Ci sp]
+32.8 +21.5 51 +41 +44 опасность
перегрева
1009.0 985.6
18 20.08 ЮЗ 2 10 км 9/1 1200 м
[Cu med, cong Ac lent Ci sp]
+31.4 +23.0 61 +42 +42 опасность
перегрева
1008.3 984.8 +33.0
21 20.08 штиль 0 10 км 9/0
[Cs]
+29.0 +27.3 91 +47 +47 опасность
перегрева
1010.5 986.6
00 21.08 штиль 0 10 км 9/0
[Ac As Ci sp]
+28.0 +24.5 81 +39 +39 очень
душно
1010.4 987.0
03 21.08 штиль 0 10 км 9/0
[Ac lent Cs]
+27.0 +24.2 85 +38 +38 очень
душно
1010.1 986.8
06 21.08 штиль 0 10 км 9/0
[Ac As Ci sp]
+26.5 +24.3 88 +37 +37 очень
душно
1010.7 987.3 +26.2
09 21.08 ЮЗ 6 10 км 9/3 1200 м
[Cu hum Ac As]
+26.5 +24.1 87 +37 +38 очень
душно
1013.0 989.5
12 21.08 З 6 10 км 10/9 1200 м
[Cu med, cong Ac As Ci sp]
+31.5 +22.8 60 +41 +42 опасность
перегрева
1011.5 988.1
15 21.08 З 2 10 км 10/9 1200 м
[Cu med, cong Ac As Ci sp]
+33.8 +22.7 52 +43 +44 опасность
перегрева
1008.6 985.7
18 21.08 штиль 0 10 км 9/4 1200 м
[Cu med, cong Ac trans Ci sp]
+32.4 +23.0 58 +43 +43 опасность
перегрева
1008.3 985.0 +34.5
21 21.08 штиль 0 10 км 9/0
[Ac trans Ci sp]
+30.5 +25.1 73 +44 +44 опасность
перегрева
1010.0 986.6
00 22.08 ЮВ 16 10 км гроза без осадков 10/4 1500 м
[Cb cap Ac As]
+27.0 +22.7 77 +36 +36 очень
душно
1012.0 988.6
03 22.08 ЮВ 2 10 км слаб. дождь {гроза} 10/1 1500 м
[Cb cap Ac As]
+23.2 +22.5 96 +32 +32 очень
душно
1010.8 987.4
06 22.08 СЗ 4 10 км 9/0
[Ac As]
+23.5 +22.1 92 +30 +30 очень
душно
1010.6 987.1 +22.5 26
09 22.08 З 4 10 км 10/0
[Ac As]
+25.7 +21.8 79 +33 +35 очень
душно
1010.8 987.3
12 22.08 СЗ 4 10 км 9/0
[Ac As Ci sp]
+28.5 +22.8 71 +38 +43 очень
душно
1010.4 986.9
15 22.08 З 4 10 км 9/3 1200 м
[Cu med, cong Ac As Ci sp]
+30.0 +22.9 66 +40 +43 очень
душно
1008.9 985.3
18 22.08 штиль 0 10 км 9/3 1200 м
[Cu med, cong Ac trans Ci sp]
+29.5 +23.7 71 +40 +40 очень
душно
1008.9 985.3 +30.7
21 22.08 штиль 0 10 км 9/0
[Ac lent Ci sp]
+27.0 +23.9 83 +37 +37 очень
душно
1010.1 986.5
03 23.08 С 6 10 км 10/0
[Ac As]
+25.0 +22.1 84 +32 +32 очень
душно
1010.1 986.6
06 23.08 штиль 0 10 км слаб. дождь 10/0
[Ac As]
+24.0 +22.6 92 +31 +31 очень
душно
1011.1 987.5 +23.5 2
09 23.08 З 2 10 км слаб. дождь 10/0
[Ac As]
+25.0 +23.6 92 +34 +38 очень
душно
1012.5 968.8
12 23.08 З 2 10 км 10/5 1200 м
[Cu med, cong Ac As]
+26.5 +24.4 88 +37 +40 очень
душно
1011.4 986.8 1
15 23.08 З 2 10 км 10/8 1200 м
[Cu med, cong Ac trans Ci sp]
+29.4 +24.1 73 +41 +42 опасность
перегрева
1008.7 985.1
18 23.08 СЗ 4 10 км 10/4 1200 м
[Cu med, cong Ac As Ci sp]
+27.4 +23.3 78 +37 +37 очень
душно
1008.9 985.3 +30.0 1
21 23.08 штиль 0 10 км 10/0
[Ac As Ci sp]
+26.2 +23.8 87 +36 +36 очень
душно
1011.3 987.6
03 24.08 штиль 0 10 км 9/0
[Ac As Ci sp]
+25.0 +24.3 96 +35 +35 очень
душно
1010.6 987.0
06 24.08 штиль 0 10 км 9/0
[Ac As Ci sp]
+25.0 +24.3 96 +35 +35 очень
душно
1011.3 987.6 +24.9 1
09 24.08 Ю 6 10 км 9/0 900 м
[Ac cast Ci sp]
+28.0 +23.9 78 +39 +41 очень
душно
1012.0 988.4
12 24.08 ЮВ 8 10 км 9/6 1200 м
[Cu med, cong Ci sp]
+31.0 +23.0 62 +41 +42 опасность
перегрева
1011.9 988.4
15 24.08 Ю 6 10 км 9/3 1200 м
[Cu med, cong Ci sp]
+32.5 +22.2 55 +42 +44 опасность
перегрева
1010.3 986.9
18 24.08 Ю 4 10 км 6/1 1200 м
[Cu med, cong Ci sp]
+31.0 +23.2 63 +41 +41 опасность
перегрева
1009.6 986.1 +33.0
21 24.08 штиль 0 10 км 9/9 1200 м
[Cu med, cong Ci sp]
+29.0 +23.9 74 +40 +40 очень
душно
1012.1 988.6
00 25.08 ЮЗ 6 10 км 9/1 1500 м
[Cb cap Ac As Ci sp]
+27.4 +24.0 82 +38 +38 очень
душно
1012.5 989.0
03 25.08 штиль 0 10 км 9/0
[Ac As Ci sp]
+26.0 +23.6 87 +35 +35 очень
душно
1011.5 988.0
06 25.08 Ю 2 10 км 9/0
[Ac As Ci sp]
+25.7 +23.6 88 +35 +35 очень
душно
1011.9 988.4 +25.6
09 25.08 ЮЗ 4 10 км 9/4 1200 м
[Cu med, cong Ac As Ci sp]
+27.5 +22.8 76 +37 +39 очень
душно
1012.0 988.5
12 25.08 Ю 4 10 км 9/4 1200 м
[Cu med, cong Ac As Ci sp]
+29.5 +22.6 66 +39 +44 очень
душно
1011.6 988.1
15 25.08 З 6 10 км 9/6 1200 м
[Cu med, cong Ci sp]
+30.5 +22.8 64 +40 +42 очень
душно
1010.0 986.7

 

Местоположение метеостанции Тиллабери (Нигер): широта 14.20 долгота 1.45 высота над уровнем моря 210 м.

В архиве по умолчанию представлена погода в Тиллабери за последнюю неделю. Архивные данные за месяц целиком и за предыдущие месяцы, начиная с января 2011 года, Вы можете получить, выбрав интересующий диапазон дат из раскрывающегося списка и нажав кнопку "Ввод!".


*Определитесь, кто Вы:
робот инопланетянин человек

Внимание! Время в таблицах - всемирное. Для получения местного времени необходимо прибавить поправку, которая равна 1 ч.

Смотрите также архив погоды в соседних городах и на ближайших метеорологических станциях:

Погода в Ниамее (Нигер) (112 км)
Погода в Дори (Буркина-Фасо) (161 км)
Погода в Досо (Нигер) (231 км)
Погода в Фада-Нгурме (Буркина-Фасо) (268 км)
Погода в Гае (Нигер) (337 км)
Погода в Канди (Бенин) (377 км)
Погода в Уагадугу (Буркина-Фасо) (382 км)
Погода в Дапаоне (Того) (389 км)
Погода в Вирнин-Конни (Нигер) (413 км)
Погода в Тахве (Нигер) (416 км)

Пояснения к столбцам:

Ветер - указаны скорость ветра в м/с - средняя за 10 мин, порывы в срок и между сроками (в фигурных скобках) и направление, откуда дует ветер: С - северный, СВ - северо-восточный, В - восточный, ЮВ - юго-восточный, Ю - южный, ЮЗ - юго-западный, З - западный, СЗ - северо-западный.
Видимость - горизонтальная дальность видимости в метрах или километрах. При видимости от 1 до 10 км при отсутствии осадков обычно наблюдается дымка, при ухудшении видимости до 1 км и менее - туман. В сухую погоду видимость может ухудшаться дымом, пылью или мглою.
Явления - указаны атмосферные явления, наблюдавшиеся в срок или в последний час перед сроком; фигурными скобками обозначены явления, наблюдавшиеся между сроками (за 1-3 часа до срока); квадратными скобками обозначены град или гололедные отложения с указанием их диаметра в мм.
Облачность - указаны через наклонную черту общая и нижняя облачность в баллах и высота нижней границы облаков в метрах; квадратными скобками обозначены формы облаков: Ci - перистые, Cs - перисто-слоистые, Cc - перисто-кучевые, Ac - высококучевые, As - высокослоистые, Sc - слоисто-кучевые, Ns - слоисто-дождевые, Cu - кучевые, Cb - кучево-дождевые. Подробнее классификацию облаков см. в Атласе облаков (PDF).
T - Температура воздуха - температура, измеренная на высоте 2 м над землей.
Td - Температура точки росы - температура, при понижении до которой содержащийся в воздухе водяной пар достигнет насыщения.
f - Относительная влажность воздуха - влажноcть воздуха, измеренная на высоте 2 м над землей.
Te - Эффективная температура - температура, которую ощущает одетый по сезону человек в тени. Характеристика душности погоды. При расчете учитывается влияние влажности воздуха и скорости ветра на теплоощущения человека.
Tes - Эффективная температура на солнце - температура, которую ощущает человек, с поправкой на солнечный нагрев. Характеристика знойности погоды. Зависит от высоты солнца над горизонтом, облачности и скорости ветра. Ночью, в пасмурную погоду, а также при ветре 12 м/с и более поправка равна нулю.
P - Атмосферное давление - приведенное к уровню моря атмосферное давление.
Po - Атмосферное давление - измеренное на уровне метеостанции атмосферное давление.
Tmin - Минимальная температура - минимум температуры воздуха на высоте 2 м над землей.
Tmax - Максимальная температура - максимум температуры воздуха на высоте 2 м над землей.
R - Количество осадков - Количество выпавших осадков за период времени, мм. При наведении курсора мыши на число - период времени, за который выпало указанное количество осадков.
R24 - Количество осадков - Количество выпавших осадков за 24 часа, мм.
S - Снежный покров - Высота снежного покрова, см. При наведении курсора мыши на число - состояние снежного покрова и степень покрытия местности в баллах.